Change the Weather History Date:

Thursday, January 3, 2013

  Actual Average (KSFM) Record (KSFM)
Temperature  
Mean Temperature 7 °F -  
Max Temperature 19 °F 31 °F 59 °F (2000)
Min Temperature -5 °F 15 °F -18 °F (2014)
Degree Days  
Heating Degree Days 58    
Moisture  
Dew Point -6 °F    
Average Humidity 52    
Maximum Humidity 76    
Minimum Humidity 34    
Precipitation  
Precipitation 0.00 in - - ()
Sea Level Pressure  
Sea Level Pressure 30.02 in    
Wind  
Wind Speed 3 mph (WNW)    
Max Wind Speed 7 mph    
Max Gust Speed -    
Visibility 10 miles    
Events      
Averages and records for this station are not official NWS values.
T = Trace of Precipitation, MM = Missing Value Source: NWS Daily Summary

Daily Weather History Graph

Daily Weather History Graph

Search for Another Location

Airport or City:

Trip Planner

Search our weather history database for the weather conditions in past years. The results will help you decide how hot, cold, wet, or windy it might be!

Date:

Astronomy

Jan. 03, 2013 Rise Set
Actual Time 7:16 AM EST 4:20 PM EST
Civil Twilight 6:43 AM EST 4:53 PM EST
Nautical Twilight 6:07 AM EST 5:29 PM EST
Astronomical Twilight 5:33 AM EST 6:03 PM EST
Moon 11:05 PM EST (1/3) 10:15 AM EST (1/3)
Length of Visible Light 10h 09m
Length of Day
9h 04m
Waning Gibbous, 65% of the Moon is Illuminated
Jan 3
Waning Gibbous
Jan 4
Last Quarter
Jan 11
New
Jan 18
First Quarter
Jan 26
Full

Hourly Weather History & Observations

Time (EST) Temp. Windchill Dew Point Humidity Pressure Visibility Wind Dir Wind Speed Gust Speed Precip Events Conditions
12:51 AM 1.9 °F - -9.9 °F 58% 30.06 in 10.0 mi Calm Calm - N/A   Clear
1:51 AM 1.9 °F -7.6 °F -9.9 °F 58% 30.06 in 10.0 mi WNW 4.6 mph - N/A   Clear
2:51 AM 1.9 °F -5.6 °F -9.9 °F 58% 30.07 in 10.0 mi Variable 3.5 mph - N/A   Clear
3:51 AM 1.0 °F -8.7 °F -9.9 °F 60% 30.05 in 10.0 mi NNW 4.6 mph - N/A   Clear
4:51 AM -0.0 °F - -9.9 °F 63% 30.06 in 10.0 mi Calm Calm - N/A   Clear
5:51 AM -0.9 °F - -9.9 °F 66% 30.06 in 10.0 mi Calm Calm - N/A   Clear
6:51 AM -0.9 °F - -9.0 °F 69% 30.06 in 10.0 mi Calm Calm - N/A   Clear
7:51 AM -5.1 °F - -11.0 °F 76% 30.07 in 10.0 mi Calm Calm - N/A   Clear
8:51 AM 1.9 °F -9.2 °F -8.0 °F 63% 30.06 in 10.0 mi NW 5.8 mph - N/A   Clear
9:51 AM 8.1 °F -0.5 °F -6.0 °F 53% 30.06 in 10.0 mi NW 4.6 mph - N/A   Clear
10:51 AM 14.0 °F - -6.0 °F 41% 30.05 in 10.0 mi Calm Calm - N/A   Clear
11:51 AM 18.0 °F 12.7 °F -4.0 °F 38% 30.02 in 10.0 mi Variable 3.5 mph - N/A   Clear
12:51 PM 19.0 °F 13.9 °F -4.0 °F 36% 30.00 in 10.0 mi Variable 3.5 mph - N/A   Clear
1:51 PM 19.9 °F 11.1 °F -2.0 °F 38% 29.98 in 10.0 mi NW 6.9 mph - N/A   Clear
3:51 PM 19.0 °F 12.3 °F -5.1 °F 34% 29.97 in 10.0 mi Variable 4.6 mph - N/A   Partly Cloudy
4:51 PM 17.1 °F 11.7 °F -5.1 °F 37% 29.97 in 10.0 mi Variable 3.5 mph - N/A   Partly Cloudy
5:51 PM 16.0 °F 6.3 °F -6.0 °F 38% 29.98 in 10.0 mi West 6.9 mph - N/A   Clear
7:51 PM 15.1 °F 6.4 °F -2.0 °F 47% 29.99 in 10.0 mi WNW 5.8 mph - N/A   Partly Cloudy
8:51 PM 14.0 °F 8.2 °F -2.0 °F 49% 30.00 in 10.0 mi Variable 3.5 mph - N/A   Mostly Cloudy
9:51 PM 12.0 °F 4.1 °F -2.0 °F 53% 29.99 in 10.0 mi WSW 4.6 mph - N/A   Partly Cloudy
10:51 PM 12.9 °F 6.9 °F -2.9 °F 49% 29.97 in 10.0 mi West 3.5 mph - N/A   Clear
11:51 PM 12.0 °F - -2.9 °F 51% 29.94 in 10.0 mi Calm Calm - N/A   Clear